Mammoth, USA 16 day weather forecast

Slopes altitude range 2290 m - 3075m

Number of lifts: 28 Pistes: -1km

In some cases the lift and piste totals shown are for the ski domain (e.g. Three Valleys) rather than individual resort (e.g. Courchevel)

Overview

The 16 day weather forecast is fully updated 4 times every day.

    • Sat 20 APR 2019
    • Sat 20
    • 4C 6C
    • Sun 21 APR 2019
    • Sun 21
    • -1C 2C
    • Mon 22 APR 2019
    • Mon 22
    • 0C 1C
    • Tue 23 APR 2019
    • Tue 23
    • 4C 5C
    • Wed 24 APR 2019
    • Wed 24
    • 7C 9C
    • Thu 25 APR 2019
    • Thu 25
    • 8C 10C
    • Fri 26 APR 2019
    • Fri 26
    • 7C 8C
    • Sat 27 APR 2019
    • Sat 27
    • 6C 7C
    • Sun 28 APR 2019
    • Sun 28
    • 8C 11C
    • Mon 29 APR 2019
    • Mon 29
    • 10C 14C
    • Tue 30 APR 2019
    • Tue 30
    • 8C 16C
    • Wed 01 MAY 2019
    • Wed 01
    • 3C 13C
    • Thu 02 MAY 2019
    • Thu 02
    • 4C 12C
    • Fri 03 MAY 2019
    • Fri 03
    • 7C 15C
    • Sat 04 MAY 2019
    • Sat 04
    • 5C 15C
    • Sun 05 MAY 2019
    • Sun 05
    • 0C 5C

Date:

Time Type 0°C level Temp Chill Snow Cloud Speed Gust Dir Press
3:00 3629m 7°C 7_3 0cm 61% 3mph 2mph 1011mB
6:00 3575m 5°C 5_6 0cm 43% 6mph 7mph 1012mB
9:00 3504m 5°C 5_6 0cm 99% 6mph 7mph 1011mB
12:00 3340m 6°C 6_5 0cm 94% 5mph 6mph 1011mB
15:00 3099m 7°C 7_3 0cm 98% 3mph 5mph 1011mB
18:00 2960m 8°C 8_6 0cm 99% 6mph 8mph 1011mB
21:00 2949m 7°C 7_7 0cm 99% 7mph 9mph 1010mB
0:00 2789m 5°C 5_5 0cm 99% 5mph 6mph 1010mB
3:00 2670m 4°C 4_3 0cm 99% 3mph 5mph 1012mB
6:00 2581m 2°C 2_3 0cm 95% 3mph 4mph 1015mB
9:00 2242m -1°C -1_5 0cm 45% 5mph 6mph 1016mB
12:00 2184m 2°C 2_5 0cm 23% 5mph 6mph 1017mB
15:00 2640m 4°C 4_2 0cm 0% 2mph 3mph 1017mB
18:00 2814m 10°C 10_6 0cm 0% 6mph 5mph 1017mB
21:00 2892m 9°C 9_8 0cm 27% 8mph 8mph 1016mB
0:00 2943m 6°C 6_4 0cm 64% 4mph 6mph 1016mB
3:00 3042m 3°C 3_3 0cm 50% 3mph 4mph 1018mB
6:00 2987m 1°C 1_7 0cm 25% 7mph 8mph 1020mB
9:00 2547m 0°C 0_8 0cm 0% 8mph 8mph 1020mB
12:00 2624m 1°C 1_8 0cm 9% 8mph 8mph 1020mB
15:00 3483m 6°C 6_7 0cm 1% 7mph 9mph 1021mB
18:00 3484m 15°C 15_2 0cm 0% 2mph 5mph 1020mB
21:00 3561m 15°C 15_5 0cm 0% 5mph 6mph 1018mB
0:00 3656m 14°C 14_4 0cm 0% 4mph 5mph 1017mB
3:00 3802m 6°C 6_5 0cm 0% 5mph 6mph 1019mB
6:00 4078m 5°C 5_8 0cm 0% 8mph 9mph 1020mB
9:00 4042m 4°C 4_8 0cm 0% 8mph 9mph 1020mB
12:00 4001m 5°C 5_8 0cm 0% 8mph 9mph 1020mB
15:00 4093m 9°C 9_7 0cm 0% 7mph 10mph 1020mB
18:00 4202m 19°C 19_2 0cm 0% 2mph 4mph 1020mB
21:00 4147m 18°C 18_6 0cm 0% 6mph 5mph 1018mB
0:00 4245m 16°C 16_6 0cm 0% 6mph 5mph 1016mB
3:00 4352m 9°C 9_3 0cm 1% 3mph 4mph 1017mB
6:00 4327m 8°C 8_6 0cm 0% 6mph 7mph 1019mB
9:00 4296m 7°C 7_7 0cm 17% 7mph 8mph 1019mB
12:00 4243m 9°C 9_7 0cm 21% 7mph 8mph 1019mB
15:00 4236m 12°C 12_5 0cm 62% 5mph 5mph 1019mB
18:00 4239m 19°C 19_6 0cm 62% 6mph 4mph 1018mB
21:00 4184m 18°C 18_8 0cm 94% 8mph 6mph 1016mB
0:00 4253m 18°C 18_6 0cm 94% 6mph 5mph 1014mB
3:00 4245m 10°C 10_2 0cm 27% 2mph 2mph 1015mB
6:00 4233m 10°C 10_6 0cm 14% 6mph 7mph 1016mB
9:00 4236m 9°C 9_6 0cm 6% 6mph 7mph 1015mB
12:00 4195m 10°C 10_6 0cm 28% 6mph 7mph 1016mB
15:00 4192m 13°C 13_4 0cm 0% 4mph 4mph 1016mB
18:00 4162m 19°C 19_6 0cm 0% 6mph 6mph 1015mB
21:00 4121m 19°C 19_8 0cm 37% 8mph 9mph 1013mB
0:00 4148m 18°C 18_7 0cm 61% 7mph 7mph 1011mB
3:00 4134m 10°C 10_2 0cm 92% 2mph 3mph 1013mB
6:00 4095m 8°C 8_6 0cm 93% 6mph 7mph 1014mB
9:00 4022m 8°C 8_7 0cm 93% 7mph 7mph 1014mB
12:00 3913m 8°C 8_7 0cm 93% 7mph 8mph 1014mB
15:00 3849m 12°C 12_4 0cm 85% 4mph 5mph 1014mB
18:00 3794m 18°C 18_8 0cm 79% 8mph 10mph 1013mB
21:00 3784m 17°C 17_10 0cm 89% 10mph 12mph 1012mB
0:00 3732m 16°C 16_8 0cm 45% 8mph 10mph 1011mB
3:00 3686m 9°C 9_2 0cm 14% 2mph 3mph 1013mB
6:00 3824m 7°C 7_6 0cm 53% 6mph 7mph 1016mB
9:00 3865m 7°C 7_6 0cm 81% 6mph 7mph 1016mB
12:00 3954m 7°C 7_6 0cm 86% 6mph 7mph 1016mB
15:00 3951m 11°C 11_4 0cm 10% 4mph 5mph 1016mB
18:00 3931m 16°C 16_5 0cm 6% 5mph 8mph 1015mB
21:00 4012m 16°C 16_8 0cm 4% 8mph 10mph 1013mB
0:00 4078m 16°C 16_11 0cm 12% 11mph 10mph 1012mB
3:00 4215m 14°C 14_11 0cm 20% 11mph 13mph 1014mB
6:00 4107m 11°C 11_9 0cm 15% 9mph 10mph 1016mB
9:00 4186m 9°C 9_9 0cm 28% 9mph 11mph 1016mB
12:00 4220m 11°C 11_9 0cm 23% 9mph 10mph 1016mB
15:00 4197m 11°C 11_7 0cm 23% 7mph 9mph 1016mB
18:00 4178m 17°C 17_5 0cm 29% 5mph 8mph 1015mB
21:00 4107m 17°C 17_6 0cm 48% 6mph 8mph 1013mB
0:00 4182m 17°C 17_8 0cm 41% 8mph 7mph 1012mB
3:00 4102m 16°C 16_5 0cm 41% 5mph 6mph 1013mB
6:00 3986m 14°C 14_4 0cm 37% 4mph 4mph 1015mB
9:00 4040m 12°C 12_3 0cm 36% 3mph 4mph 1014mB
12:00 4115m 14°C 14_4 0cm 41% 4mph 5mph 1013mB
15:00 4067m 12°C 12_4 0cm 50% 4mph 4mph 1014mB
18:00 4024m 17°C 17_6 0cm 49% 6mph 9mph 1013mB
21:00 4070m 17°C 17_9 0cm 63% 9mph 11mph 1011mB
0:00 4070m 17°C 17_12 0cm 69% 12mph 12mph 1010mB
Afternoon 0mm 0 3848m 16°C 16_4 0cm 94% 4mph 5mph 1013mB
Morning 0mm 0 3744m 8°C 8_12 0cm 94% 12mph 13mph 1010mB
Afternoon 0mm 0 3312m 13°C 13_10 0cm 14% 10mph 13mph 1014mB
Morning 0mm 0 3645m 3°C 3_6 0cm 72% 6mph 4mph 1010mB
Afternoon 0mm 0 3608m 12°C 12_5 0cm 32% 5mph 7mph 1013mB
Morning 0.03125mm 0.375 3932m 4°C 4_2 0cm 26% 2mph 3mph 1009mB
Afternoon 0.0885417mm 1 3801m 15°C 15_3 0cm 34% 3mph 4mph 1010mB
Morning 0.0416667mm 0.5 3958m 6°C 6_13 0cm 23% 13mph 13mph 1005mB
Afternoon 0mm 0 3643m 15°C 15_10 0cm 68% 10mph 16mph 1006mB
Morning 0.0572917mm 0 2873m 5°C 5_15 1cm 100% 15mph 17mph 1005mB
Afternoon 0.427083mm 0 2392m 5°C 5_8 3cm 100% 8mph 10mph 1006mB
Morning 0.375mm 0.625 2882m -1°C -1_10 5cm 97% 10mph 13mph 1007mB

16 day outlook at a glance

Forecast issued: 20/04/2019 06:18:01

Chat

Your comments and questions. In a resort? Let us know what it's like!


Characters left 250

For terms and conditions see Readers Comments on the Cookie and privacy policy page.